(計算時間: 0.045秒, 共找到 88968 筆資料,顯示第 401 到 500 筆)
可用欄位參考
GUID date humidity temperature pm25 geox geoy
54dc1e06-61ac-489f-a77f-0c3cd38a10d1 2015-07-27 19:40:00 45.666666666667 28.083333333333 0.505 120.218 23.006
54dc1e06-61ac-489f-a77f-0c3cd38a10d1 2015-07-27 19:41:00 46.166666666667 28.25 0 120.218 23.006
54dc1e06-61ac-489f-a77f-0c3cd38a10d1 2015-07-27 19:42:00 45.5 28 1.9075 120.218 23.006
54dc1e06-61ac-489f-a77f-0c3cd38a10d1 2015-07-27 19:43:00 47.666666666667 28 0.10583333333333 120.218 23.006
54dc1e06-61ac-489f-a77f-0c3cd38a10d1 2015-07-27 19:44:00 45.75 28.083333333333 0 120.218 23.006
54dc1e06-61ac-489f-a77f-0c3cd38a10d1 2015-07-27 19:45:00 46.916666666667 28.166666666667 0.535 120.218 23.006
54dc1e06-61ac-489f-a77f-0c3cd38a10d1 2015-07-27 19:46:00 46.166666666667 28.083333333333 0.54583333333333 120.218 23.006
54dc1e06-61ac-489f-a77f-0c3cd38a10d1 2015-07-27 19:47:00 47.083333333333 28.666666666667 1.3925 120.218 23.006
54dc1e06-61ac-489f-a77f-0c3cd38a10d1 2015-07-27 19:48:00 46.833333333333 28.666666666667 0.50583333333333 120.218 23.006
54dc1e06-61ac-489f-a77f-0c3cd38a10d1 2015-07-27 19:49:00 47.166666666667 28.583333333333 0.34416666666667 120.218 23.006
54dc1e06-61ac-489f-a77f-0c3cd38a10d1 2015-07-27 19:50:00 45.083333333333 28.166666666667 0 120.218 23.006
54dc1e06-61ac-489f-a77f-0c3cd38a10d1 2015-07-27 19:51:00 45.916666666667 29 0 120.218 23.006
54dc1e06-61ac-489f-a77f-0c3cd38a10d1 2015-07-27 19:52:00 45.166666666667 28.583333333333 0.725 120.218 23.006
54dc1e06-61ac-489f-a77f-0c3cd38a10d1 2015-07-27 19:53:00 46.833333333333 28.583333333333 0.089166666666667 120.218 23.006
54dc1e06-61ac-489f-a77f-0c3cd38a10d1 2015-07-27 19:54:00 48.363636363636 28.818181818182 0.19545454545455 120.218 23.006
54dc1e06-61ac-489f-a77f-0c3cd38a10d1 2015-07-27 19:55:00 45.333333333333 28.25 1.9716666666667 120.218 23.006
54dc1e06-61ac-489f-a77f-0c3cd38a10d1 2015-07-27 19:56:00 45.916666666667 28.5 2.0708333333333 120.218 23.006
54dc1e06-61ac-489f-a77f-0c3cd38a10d1 2015-07-27 19:57:00 46.333333333333 28.5 0 120.218 23.006
54dc1e06-61ac-489f-a77f-0c3cd38a10d1 2015-07-27 19:58:00 45.916666666667 28.25 0.005 120.218 23.006
54dc1e06-61ac-489f-a77f-0c3cd38a10d1 2015-07-27 19:59:00 48.833333333333 29 1.2458333333333 120.218 23.006
54dc1e06-61ac-489f-a77f-0c3cd38a10d1 2015-07-27 20:00:00 45.083333333333 28.166666666667 1.165 120.218 23.006
54dc1e06-61ac-489f-a77f-0c3cd38a10d1 2015-07-27 20:01:00 46.666666666667 28.666666666667 0.56833333333333 120.218 23.006
54dc1e06-61ac-489f-a77f-0c3cd38a10d1 2015-07-27 20:02:00 44.916666666667 28.416666666667 0.99083333333333 120.218 23.006
54dc1e06-61ac-489f-a77f-0c3cd38a10d1 2015-07-27 20:03:00 46.166666666667 28.083333333333 1.0625 120.218 23.006
54dc1e06-61ac-489f-a77f-0c3cd38a10d1 2015-07-27 20:04:00 45.583333333333 28.333333333333 1.1175 120.218 23.006
54dc1e06-61ac-489f-a77f-0c3cd38a10d1 2015-07-27 20:05:00 47.333333333333 28.166666666667 0 120.218 23.006
54dc1e06-61ac-489f-a77f-0c3cd38a10d1 2015-07-27 20:06:00 44.916666666667 28.916666666667 0 120.218 23.006
54dc1e06-61ac-489f-a77f-0c3cd38a10d1 2015-07-27 20:07:00 46 28.333333333333 0.3925 120.218 23.006
54dc1e06-61ac-489f-a77f-0c3cd38a10d1 2015-07-27 20:08:00 46.75 28.5 0.795 120.218 23.006
54dc1e06-61ac-489f-a77f-0c3cd38a10d1 2015-07-27 20:09:00 45 28 0 120.218 23.006
54dc1e06-61ac-489f-a77f-0c3cd38a10d1 2015-07-27 20:10:00 46.333333333333 28.083333333333 1.4191666666667 120.218 23.006
54dc1e06-61ac-489f-a77f-0c3cd38a10d1 2015-07-27 20:11:00 45.416666666667 28.166666666667 1.135 120.218 23.006
54dc1e06-61ac-489f-a77f-0c3cd38a10d1 2015-07-27 20:12:00 46 28.5 0.40166666666667 120.218 23.006
54dc1e06-61ac-489f-a77f-0c3cd38a10d1 2015-07-27 20:13:00 46.083333333333 28.083333333333 0.25666666666667 120.218 23.006
54dc1e06-61ac-489f-a77f-0c3cd38a10d1 2015-07-27 20:14:00 47.083333333333 28.916666666667 0.04 120.218 23.006
54dc1e06-61ac-489f-a77f-0c3cd38a10d1 2015-07-27 20:15:00 45.75 28.166666666667 0.64583333333333 120.218 23.006
54dc1e06-61ac-489f-a77f-0c3cd38a10d1 2015-07-27 20:16:00 47.166666666667 28.75 1.1383333333333 120.218 23.006
54dc1e06-61ac-489f-a77f-0c3cd38a10d1 2015-07-27 20:17:00 46.25 28.666666666667 0.3075 120.218 23.006
54dc1e06-61ac-489f-a77f-0c3cd38a10d1 2015-07-27 20:18:00 45.5 28.833333333333 2.3475 120.218 23.006
54dc1e06-61ac-489f-a77f-0c3cd38a10d1 2015-07-27 20:19:00 46.5 28.083333333333 2.1225 120.218 23.006
54dc1e06-61ac-489f-a77f-0c3cd38a10d1 2015-09-05T12:54:00 42.666666666667 31 0.28333333333333 120.218 23.006
54dc1e06-61ac-489f-a77f-0c3cd38a10d1 2015-07-27 20:20:00 45.333333333333 28.083333333333 1.1725 120.218 23.006
54dc1e06-61ac-489f-a77f-0c3cd38a10d1 2015-07-27 20:21:00 47.166666666667 28.583333333333 0.061666666666667 120.218 23.006
54dc1e06-61ac-489f-a77f-0c3cd38a10d1 2015-07-27 20:22:00 46.083333333333 28.25 0.068333333333333 120.218 23.006
54dc1e06-61ac-489f-a77f-0c3cd38a10d1 2015-07-27 20:23:00 46.416666666667 28.75 0 120.218 23.006
54dc1e06-61ac-489f-a77f-0c3cd38a10d1 2015-07-27 20:24:00 47.25 28.25 0.27666666666667 120.218 23.006
54dc1e06-61ac-489f-a77f-0c3cd38a10d1 2015-07-27 20:25:00 45.666666666667 28.666666666667 0.25166666666667 120.218 23.006
54dc1e06-61ac-489f-a77f-0c3cd38a10d1 2015-07-27 20:26:00 45.833333333333 29.083333333333 0.31 120.218 23.006
54dc1e06-61ac-489f-a77f-0c3cd38a10d1 2015-07-27 20:27:00 45.833333333333 28.833333333333 0.67083333333333 120.218 23.006
54dc1e06-61ac-489f-a77f-0c3cd38a10d1 2015-07-27 20:28:00 46.75 28.25 0.47916666666667 120.218 23.006
54dc1e06-61ac-489f-a77f-0c3cd38a10d1 2015-07-27 20:29:00 45 28.75 0.76333333333333 120.218 23.006
54dc1e06-61ac-489f-a77f-0c3cd38a10d1 2015-07-27 20:30:00 45.916666666667 28.333333333333 0.8925 120.218 23.006
54dc1e06-61ac-489f-a77f-0c3cd38a10d1 2015-07-27 20:31:00 46 28.333333333333 0 120.218 23.006
54dc1e06-61ac-489f-a77f-0c3cd38a10d1 2015-07-27 20:32:00 46.083333333333 28.583333333333 1.3716666666667 120.218 23.006
54dc1e06-61ac-489f-a77f-0c3cd38a10d1 2015-07-27 20:33:00 45.5 28.583333333333 0 120.218 23.006
54dc1e06-61ac-489f-a77f-0c3cd38a10d1 2015-07-27 20:34:00 47.333333333333 29.083333333333 0.42583333333333 120.218 23.006
54dc1e06-61ac-489f-a77f-0c3cd38a10d1 2015-07-27 20:35:00 46.166666666667 28.583333333333 0 120.218 23.006
54dc1e06-61ac-489f-a77f-0c3cd38a10d1 2015-07-27 20:36:00 47.166666666667 28.583333333333 1.6416666666667 120.218 23.006
54dc1e06-61ac-489f-a77f-0c3cd38a10d1 2015-07-27 20:37:00 45.666666666667 28.333333333333 0.22583333333333 120.218 23.006
54dc1e06-61ac-489f-a77f-0c3cd38a10d1 2015-07-27 20:38:00 45.916666666667 28.416666666667 0.92416666666667 120.218 23.006
54dc1e06-61ac-489f-a77f-0c3cd38a10d1 2015-07-27 20:39:00 46.916666666667 29.166666666667 0 120.218 23.006
54dc1e06-61ac-489f-a77f-0c3cd38a10d1 2015-07-27 20:40:00 45.916666666667 28.833333333333 0.15833333333333 120.218 23.006
54dc1e06-61ac-489f-a77f-0c3cd38a10d1 2015-07-27 20:41:00 47.083333333333 29 0 120.218 23.006
54dc1e06-61ac-489f-a77f-0c3cd38a10d1 2015-07-27 20:42:00 45.583333333333 28.416666666667 0.62833333333333 120.218 23.006
54dc1e06-61ac-489f-a77f-0c3cd38a10d1 2015-07-27 20:43:00 47.833333333333 28.25 0.5625 120.218 23.006
54dc1e06-61ac-489f-a77f-0c3cd38a10d1 2015-07-27 20:44:00 45.75 28.333333333333 1.9908333333333 120.218 23.006
54dc1e06-61ac-489f-a77f-0c3cd38a10d1 2015-07-27 20:45:00 46.75 28.25 0.39916666666667 120.218 23.006
54dc1e06-61ac-489f-a77f-0c3cd38a10d1 2015-07-27 20:46:00 47.333333333333 28.916666666667 0.38583333333333 120.218 23.006
54dc1e06-61ac-489f-a77f-0c3cd38a10d1 2015-07-27 20:47:00 47.583333333333 28.416666666667 0.9925 120.218 23.006
54dc1e06-61ac-489f-a77f-0c3cd38a10d1 2015-07-27 20:48:00 46 28.416666666667 0 120.218 23.006
54dc1e06-61ac-489f-a77f-0c3cd38a10d1 2015-07-27 20:49:00 45.666666666667 28.833333333333 0.74 120.218 23.006
54dc1e06-61ac-489f-a77f-0c3cd38a10d1 2015-07-27 20:50:00 47.583333333333 29.416666666667 0 120.218 23.006
54dc1e06-61ac-489f-a77f-0c3cd38a10d1 2015-07-27 20:51:00 46.166666666667 28.75 0 120.218 23.006
54dc1e06-61ac-489f-a77f-0c3cd38a10d1 2015-07-27 20:52:00 45.416666666667 28.333333333333 1.6708333333333 120.218 23.006
54dc1e06-61ac-489f-a77f-0c3cd38a10d1 2015-07-27 20:53:00 44.583333333333 28.333333333333 3.3241666666667 120.218 23.006
54dc1e06-61ac-489f-a77f-0c3cd38a10d1 2015-07-27 20:54:00 45.666666666667 28.416666666667 2.7141666666667 120.218 23.006
54dc1e06-61ac-489f-a77f-0c3cd38a10d1 2015-07-27 20:55:00 46.666666666667 28.75 0.67166666666667 120.218 23.006
54dc1e06-61ac-489f-a77f-0c3cd38a10d1 2015-07-27 20:56:00 45.666666666667 28.666666666667 1.1625 120.218 23.006
54dc1e06-61ac-489f-a77f-0c3cd38a10d1 2015-07-27 20:57:00 47.333333333333 28.333333333333 0.65166666666667 120.218 23.006
54dc1e06-61ac-489f-a77f-0c3cd38a10d1 2015-07-27 20:58:00 46.666666666667 28.75 0.7175 120.218 23.006
54dc1e06-61ac-489f-a77f-0c3cd38a10d1 2015-07-27 20:59:00 47.416666666667 28.166666666667 0.76833333333333 120.218 23.006
54dc1e06-61ac-489f-a77f-0c3cd38a10d1 2015-07-27 21:00:00 46.416666666667 28.333333333333 2.8583333333333 120.218 23.006
54dc1e06-61ac-489f-a77f-0c3cd38a10d1 2015-07-27 21:01:00 47.833333333333 29 0.11166666666667 120.218 23.006
54dc1e06-61ac-489f-a77f-0c3cd38a10d1 2015-07-27 21:02:00 45.833333333333 28.333333333333 0.4725 120.218 23.006
54dc1e06-61ac-489f-a77f-0c3cd38a10d1 2015-07-27 21:03:00 47.083333333333 29 4.3791666666667 120.218 23.006
54dc1e06-61ac-489f-a77f-0c3cd38a10d1 2015-07-27 21:04:00 45.666666666667 28.833333333333 0 120.218 23.006
54dc1e06-61ac-489f-a77f-0c3cd38a10d1 2015-07-27 21:05:00 47.583333333333 29.166666666667 0.96583333333333 120.218 23.006
54dc1e06-61ac-489f-a77f-0c3cd38a10d1 2015-07-27 21:06:00 47.166666666667 28.5 3.4233333333333 120.218 23.006
54dc1e06-61ac-489f-a77f-0c3cd38a10d1 2015-07-27 21:07:00 47.416666666667 29.25 1.05 120.218 23.006
54dc1e06-61ac-489f-a77f-0c3cd38a10d1 2015-07-27 21:08:00 46 28.416666666667 0.33666666666667 120.218 23.006
54dc1e06-61ac-489f-a77f-0c3cd38a10d1 2015-07-27 21:09:00 47.5 28.666666666667 0.75166666666667 120.218 23.006
54dc1e06-61ac-489f-a77f-0c3cd38a10d1 2015-07-27 21:10:00 46.5 28.666666666667 1.1125 120.218 23.006
54dc1e06-61ac-489f-a77f-0c3cd38a10d1 2015-07-27 21:11:00 48.5 28.583333333333 1.1341666666667 120.218 23.006
54dc1e06-61ac-489f-a77f-0c3cd38a10d1 2015-07-27 21:12:00 46.833333333333 29 0.26166666666667 120.218 23.006
54dc1e06-61ac-489f-a77f-0c3cd38a10d1 2015-07-27 21:13:00 47.083333333333 28.666666666667 0 120.218 23.006
54dc1e06-61ac-489f-a77f-0c3cd38a10d1 2015-07-27 21:14:00 48.083333333333 28.583333333333 1.6025 120.218 23.006
54dc1e06-61ac-489f-a77f-0c3cd38a10d1 2015-07-27 21:15:00 47.5 28.166666666667 0 120.218 23.006
54dc1e06-61ac-489f-a77f-0c3cd38a10d1 2015-07-27 21:16:00 46.416666666667 28.75 0 120.218 23.006
54dc1e06-61ac-489f-a77f-0c3cd38a10d1 2015-07-27 21:17:00 45.083333333333 28.416666666667 1.4108333333333 120.218 23.006
54dc1e06-61ac-489f-a77f-0c3cd38a10d1 2015-07-27 21:18:00 47.75 28.5 0 120.218 23.006